Tracking 19634 objects as of 21-May-2019
HD Live streaming from Space Station
objects crossing your sky now

BSAT-3A

Track BSAT-3A now!
BSAT-3A is classified as:


NORAD ID: 32019
Int'l Code: 2007-036B
Perigee: 35,789.4 km
Apogee: 35,796.6 km
Inclination: 0.0 °
Period: 1,436.1 minutes
Semi major axis: 42163 km
RCS: 12.5893 m2 (large)
Launch date: August 14, 2007
Source: Japan (JPN)
Launch site: FRENCH GUIANA (FRGUI)

BSAT-3a, is a 4,365-pound satellite for the Broadcasting Satellite System Corp. of Japan.
aabbcc
Your satellite tracking list
Your tracking list is empty




NASA's NSSDC Master Catalog

Two Line Element Set (TLE):
1 32019U 07036B   19140.97799428 -.00000360  00000-0  00000+0 0  9990
2 32019   0.0448 231.1777 0000849 280.8396 188.2417  1.00274465 43151
Source of the keplerian elements: AFSPC